Location: Ahausen
(50.4985°N, 8.2722°E)
Time: 11:24:37
(UTC+00:00)

Cosmos 468 - Pass Details

Date: 18 September 2020
Orbit: 761 x 784 km, 74.0° (Epoch: 30 October)

Event Time Altitude Azimuth Distance (km) Brightness Sun altitude
Rises 19:08:57 0° 335° (NNW) 3,277 8.5 -15.6°
Reaches altitude 10° 19:11:21 10° 337° (NNW) 2,348 7.7 -16.0°
Maximum altitude 19:16:43 85° 66° (ENE) 794 4.5 -16.8°
Enters shadow 19:20:21 21° 154° (SSE) 1,701 5.9 -17.3°
